,,Stat5,,Stat1,,Stat2,,Stat3,,Stat4,,Wind1,,Wind1,
time,status,PA1M_AVG,status,PR1M_SUM,status,RH1M_AVG,status,SR1M_AVG,status,TA1M_AVG,status,W1dAve1m,status,W1sAve1m,
2001-07-29, 00:00:00,VALID,918.404,VALID,0,VALID,94.156,VALID,0,VALID,20.6761,VALID,331,VALID,0,
2001-07-29, 00:01:00,VALID,918.396,VALID,0,VALID,94.2882,VALID,-0.0169808,VALID,20.6887,VALID,331,VALID,0,
2001-07-29, 00:02:00,VALID,918.379,VALID,0,VALID,94.3314,VALID,-0.0169808,VALID,20.6954,VALID,331,VALID,0,
2001-07-29, 00:03:01,VALID,918.369,VALID,0,VALID,94.3543,VALID,-0.0679233,VALID,20.7046,VALID,331,VALID,0,
2001-07-29, 00:04:00,VALID,918.364,VALID,0,VALID,94.2246,VALID,-0.0339617,VALID,20.7078,VALID,271,VALID,0,
2001-07-29, 00:05:00,VALID,918.362,VALID,0,VALID,94.2755,VALID,0,VALID,20.7011,VALID,198,VALID,0,
2001-07-29, 00:06:00,VALID,918.329,VALID,0,VALID,94.348,VALID,-0.0339617,VALID,20.7173,VALID,195,VALID,0,
2001-07-29, 00:07:01,VALID,918.316,VALID,0,VALID,94.4878,VALID,-0.0169808,VALID,20.7235,VALID,195,VALID,0,
2001-07-29, 00:08:01,VALID,918.304,VALID,0,VALID,94.5273,VALID,-0.0169808,VALID,20.7372,VALID,194,VALID,0,
2001-07-29, 00:09:00,VALID,918.297,VALID,0,VALID,94.6392,VALID,0,VALID,20.7466,VALID,194,VALID,0,
2001-07-29, 00:10:00,VALID,918.288,VALID,0,VALID,94.6849,VALID,-0.0169808,VALID,20.7563,VALID,194,VALID,0,
2001-07-29, 00:11:00,VALID,918.285,VALID,0,VALID,94.5934,VALID,-0.0679233,VALID,20.7471,VALID,194,VALID,0,
2001-07-29, 00:12:01,VALID,918.243,VALID,0,VALID,94.8337,VALID,-0.0679233,VALID,20.7436,VALID,193,VALID,0,
2001-07-29, 00:13:01,VALID,918.243,VALID,0,VALID,94.8668,VALID,0.0169808,VALID,20.7525,VALID,193,VALID,0,
2001-07-29, 00:14:00,VALID,918.23,VALID,0,VALID,94.7956,VALID,0.0509425,VALID,20.7587,VALID,193,VALID,0,
2001-07-29, 00:15:01,VALID,918.216,VALID,0,VALID,94.779,VALID,0.0339617,VALID,20.7585,VALID,193,VALID,0,
2001-07-29, 00:16:01,VALID,918.214,VALID,0,VALID,94.8744,VALID,0.0849042,VALID,20.7553,VALID,193,VALID,0,
2001-07-29, 00:17:01,VALID,918.202,VALID,0,VALID,94.9507,VALID,0.0509425,VALID,20.7682,VALID,193,VALID,0,
2001-07-29, 00:18:00,VALID,918.192,VALID,0,VALID,94.9711,VALID,0.0509425,VALID,20.7779,VALID,193,VALID,0,
2001-07-29, 00:19:01,VALID,918.181,VALID,0,VALID,94.9253,VALID,0.0679233,VALID,20.7905,VALID,192,VALID,0,
2001-07-29, 00:20:01,VALID,918.178,VALID,0,VALID,94.877,VALID,0.0679233,VALID,20.7841,VALID,192,VALID,0,
2001-07-29, 00:21:00,VALID,918.163,VALID,0,VALID,94.8083,VALID,0.0849042,VALID,20.7808,VALID,192,VALID,0,
2001-07-29, 00:22:00,VALID,918.167,VALID,0,VALID,94.8147,VALID,0.0679233,VALID,20.7744,VALID,192,VALID,0,
2001-07-29, 00:23:00,VALID,918.155,VALID,0,VALID,94.6481,VALID,0.0849042,VALID,20.7518,VALID,45,VALID,0.285056,
2001-07-29, 00:24:01,VALID,918.163,VALID,0,VALID,94.6773,VALID,0.0849042,VALID,20.7359,VALID,19,VALID,0.484821,
2001-07-29, 00:25:01,VALID,918.164,VALID,0,VALID,94.8007,VALID,0.0679233,VALID,20.7162,VALID,18,VALID,0.364231,
2001-07-29, 00:26:00,VALID,918.163,VALID,0,VALID,94.8223,VALID,0.0679233,VALID,20.7095,VALID,18,VALID,0.373661,
2001-07-29, 00:27:01,VALID,918.171,VALID,0,VALID,94.7981,VALID,0.0509425,VALID,20.6872,VALID,18,VALID,0.651042,
2001-07-29, 00:28:01,VALID,918.178,VALID,0,VALID,94.9583,VALID,0.0849042,VALID,20.6804,VALID,12,VALID,0.50651,
2001-07-29, 00:29:01,VALID,918.187,VALID,0,VALID,94.9698,VALID,0.0849042,VALID,20.6775,VALID,31,VALID,0.457899,
2001-07-29, 00:30:01,VALID,918.187,VALID,0,VALID,94.8172,VALID,0.0679233,VALID,20.6516,VALID,25,VALID,0.541941,
2001-07-29, 00:31:01,VALID,918.182,VALID,0,VALID,94.9126,VALID,0.0339617,VALID,20.6228,VALID,25,VALID,0.398655,
2001-07-29, 00:32:01,VALID,918.187,VALID,0,VALID,95.0346,VALID,0,VALID,20.6131,VALID,25,VALID,0.165148,
2001-07-29, 00:33:01,VALID,918.182,VALID,0,VALID,95.0499,VALID,0.0509425,VALID,20.5935,VALID,25,VALID,0.0592949,
2001-07-29, 00:34:01,VALID,918.174,VALID,0,VALID,95.1402,VALID,0.0849042,VALID,20.5811,VALID,25,VALID,0,
2001-07-29, 00:35:01,VALID,918.15,VALID,0,VALID,95.2839,VALID,0.0509425,VALID,20.5771,VALID,25,VALID,0,
2001-07-29, 00:36:01,VALID,918.146,VALID,0,VALID,95.2775,VALID,0.0339617,VALID,20.5808,VALID,25,VALID,0,
2001-07-29, 00:37:01,VALID,918.15,VALID,0,VALID,95.3627,VALID,0.0849042,VALID,20.5905,VALID,25,VALID,0,
2001-07-29, 00:38:01,VALID,918.143,VALID,0,VALID,95.4225,VALID,0.0169808,VALID,20.6034,VALID,25,VALID,0,
2001-07-29, 00:39:01,VALID,918.132,VALID,0,VALID,95.4187,VALID,0.0339617,VALID,20.6104,VALID,24,VALID,0.237277,
2001-07-29, 00:40:01,VALID,918.122,VALID,0,VALID,95.3856,VALID,0.0509425,VALID,20.6163,VALID,18,VALID,0.739654,
2001-07-29, 00:41:01,VALID,918.13,VALID,0,VALID,95.294,VALID,0.0339617,VALID,20.6002,VALID,8,VALID,0.640179,
2001-07-29, 00:42:01,VALID,918.121,VALID,0,VALID,95.3627,VALID,0.0679233,VALID,20.6004,VALID,354,VALID,0.696181,
2001-07-29, 00:43:01,VALID,918.114,VALID,0,VALID,95.336,VALID,0.0169808,VALID,20.6045,VALID,357,VALID,0.44553,
2001-07-29, 00:44:01,VALID,918.111,VALID,0,VALID,95.3131,VALID,-0.0679233,VALID,20.6149,VALID,358,VALID,0.148438,
2001-07-29, 00:45:01,VALID,918.112,VALID,0,VALID,95.3716,VALID,-0.0339617,VALID,20.6047,VALID,358,VALID,0.00370066,
2001-07-29, 00:46:01,VALID,918.115,VALID,0,VALID,95.4059,VALID,-0.0509425,VALID,20.6179,VALID,358,VALID,0,
2001-07-29, 00:47:01,VALID,918.115,VALID,0,VALID,95.3767,VALID,-0.0679233,VALID,20.6375,VALID,358,VALID,0,
2001-07-29, 00:48:00,VALID,918.12,VALID,0,VALID,95.3945,VALID,-0.0509425,VALID,20.6308,VALID,358,VALID,0,
2001-07-29, 00:49:00,VALID,918.12,VALID,0,VALID,95.3894,VALID,-0.0339617,VALID,20.6341,VALID,354,VALID,0.0328125,
2001-07-29, 00:50:00,VALID,918.133,VALID,0,VALID,95.3144,VALID,-0.101885,VALID,20.6244,VALID,316,VALID,0.246622,
2001-07-29, 00:51:00,VALID,918.124,VALID,0,VALID,95.3157,VALID,0,VALID,20.6179,VALID,310,VALID,0.0142857,
2001-07-29, 00:52:00,VALID,918.106,VALID,0,VALID,95.3703,VALID,-0.0339617,VALID,20.605,VALID,310,VALID,0.0837674,
2001-07-29, 00:53:00,VALID,918.058,VALID,0,VALID,95.4059,VALID,-0.0509425,VALID,20.5948,VALID,337,VALID,0.231571,
2001-07-29, 00:54:00,VALID,918.036,VALID,0,VALID,95.3678,VALID,-0.0679233,VALID,20.6114,VALID,9,VALID,0.537277,
2001-07-29, 00:55:00,VALID,918.01,VALID,0,VALID,95.3411,VALID,-0.0509425,VALID,20.6238,VALID,15,VALID,0.401182,
2001-07-29, 00:56:00,VALID,917.981,VALID,0,VALID,95.3742,VALID,-0.0339617,VALID,20.64,VALID,11,VALID,0.472321,
2001-07-29, 00:57:00,VALID,917.963,VALID,0,VALID,95.3246,VALID,-0.0169808,VALID,20.6599,VALID,4,VALID,0.399523,
2001-07-29, 00:58:00,VALID,917.955,VALID,0,VALID,95.13,VALID,-0.0509425,VALID,20.6696,VALID,9,VALID,0.188368,
2001-07-29, 00:59:00,VALID,917.944,VALID,0,VALID,95.0588,VALID,-0.0679233,VALID,20.6537,VALID,9,VALID,0.00325521,
2001-07-29, 01:00:00,VALID,917.94,VALID,0,VALID,94.9889,VALID,-0.0679233,VALID,20.6403,VALID,7,VALID,0.255757,
2001-07-29, 01:01:00,VALID,917.928,VALID,0,VALID,94.9787,VALID,-0.0679233,VALID,20.6241,VALID,9,VALID,0.518446,
2001-07-29, 01:02:00,VALID,917.923,VALID,0,VALID,94.9062,VALID,-0.0679233,VALID,20.6112,VALID,14,VALID,0.799479,
2001-07-29, 01:03:00,VALID,917.908,VALID,0,VALID,94.9011,VALID,-0.0169808,VALID,20.5694,VALID,17,VALID,0.864183,
2001-07-29, 01:04:00,VALID,917.883,VALID,0,VALID,94.9227,VALID,-0.0339617,VALID,20.5339,VALID,25,VALID,0.883482,
2001-07-29, 01:05:00,VALID,917.864,VALID,0,VALID,95.0207,VALID,-0.0509425,VALID,20.5016,VALID,25,VALID,0.839738,
2001-07-29, 01:06:00,VALID,917.852,VALID,0,VALID,94.9736,VALID,-0.0679233,VALID,20.469,VALID,23,VALID,0.795759,
2001-07-29, 01:07:00,VALID,917.845,VALID,0,VALID,95.0346,VALID,-0.0509425,VALID,20.4467,VALID,14,VALID,0.591146,
2001-07-29, 01:08:00,VALID,917.818,VALID,0,VALID,95.1275,VALID,-0.0679233,VALID,20.4211,VALID,11,VALID,0.584535,
2001-07-29, 01:09:00,VALID,917.811,VALID,0,VALID,95.2076,VALID,-0.0509425,VALID,20.4014,VALID,9,VALID,0.533705,
2001-07-29, 01:10:00,VALID,917.801,VALID,0,VALID,95.3284,VALID,-0.0339617,VALID,20.3818,VALID,357,VALID,0.58826,
2001-07-29, 01:11:00,VALID,917.789,VALID,0,VALID,95.3665,VALID,-0.0679233,VALID,20.3756,VALID,357,VALID,0.482812,
2001-07-29, 01:12:00,VALID,917.763,VALID,0,VALID,95.3729,VALID,-0.0169808,VALID,20.3659,VALID,358,VALID,0.370009,
2001-07-29, 01:13:00,VALID,917.745,VALID,0,VALID,95.4085,VALID,-0.0509425,VALID,20.3627,VALID,4,VALID,0.42513,
2001-07-29, 01:14:00,VALID,917.714,VALID,0,VALID,95.3386,VALID,-0.0169808,VALID,20.3629,VALID,5,VALID,0.0852865,
2001-07-29, 01:15:00,VALID,917.683,VALID,0,VALID,95.4034,VALID,-0.0339617,VALID,20.3366,VALID,4,VALID,0.0851151,
2001-07-29, 01:16:00,VALID,917.654,VALID,0,VALID,95.4492,VALID,-0.0169808,VALID,20.3366,VALID,3,VALID,0,
2001-07-29, 01:17:00,VALID,917.624,VALID,0,VALID,95.4123,VALID,-0.0339617,VALID,20.3244,VALID,4,VALID,0,
2001-07-29, 01:18:00,VALID,917.606,VALID,0,VALID,95.4238,VALID,-0.0169808,VALID,20.311,VALID,4,VALID,0,
2001-07-29, 01:19:00,VALID,917.601,VALID,0,VALID,95.397,VALID,-0.0339617,VALID,20.2849,VALID,4,VALID,0,
2001-07-29, 01:20:00,VALID,917.589,VALID,0,VALID,95.4454,VALID,-0.0169808,VALID,20.2623,VALID,4,VALID,0,
2001-07-29, 01:21:00,VALID,917.587,VALID,0,VALID,95.514,VALID,-0.0169808,VALID,20.2658,VALID,4,VALID,0,
2001-07-29, 01:22:00,VALID,917.579,VALID,0,VALID,95.4797,VALID,-0.0339617,VALID,20.2431,VALID,5,VALID,0,
2001-07-29, 01:23:00,VALID,917.582,VALID,0,VALID,95.364,VALID,-0.0339617,VALID,20.2238,VALID,5,VALID,0,
2001-07-29, 01:24:00,VALID,917.594,VALID,0,VALID,95.3258,VALID,-0.0339617,VALID,20.1982,VALID,5,VALID,0,
2001-07-29, 01:25:00,VALID,917.596,VALID,0,VALID,95.3767,VALID,-0.0679233,VALID,20.1594,VALID,40,VALID,0,
2001-07-29, 01:26:00,VALID,917.587,VALID,0,VALID,95.3284,VALID,-0.0679233,VALID,20.1206,VALID,93,VALID,0,
2001-07-29, 01:27:00,VALID,917.585,VALID,0,VALID,95.4314,VALID,-0.0509425,VALID,20.0786,VALID,137,VALID,0.195747,
2001-07-29, 01:28:00,VALID,917.58,VALID,0,VALID,95.631,VALID,-0.0339617,VALID,20.056,VALID,140,VALID,0.253906,
2001-07-29, 01:29:00,VALID,917.564,VALID,0,VALID,95.7493,VALID,-0.0509425,VALID,20.0337,VALID,140,VALID,0.180339,
2001-07-29, 01:30:00,VALID,917.543,VALID,0,VALID,95.8803,VALID,-0.0169808,VALID,20.0145,VALID,140,VALID,0.13528,
2001-07-29, 01:31:00,VALID,917.537,VALID,0,VALID,95.9438,VALID,-0.0339617,VALID,20.0118,VALID,140,VALID,0,
2001-07-29, 01:32:00,VALID,917.533,VALID,0,VALID,96.0176,VALID,-0.0339617,VALID,19.9957,VALID,155,VALID,0,
2001-07-29, 01:33:00,VALID,917.524,VALID,0,VALID,95.9451,VALID,-0.0339617,VALID,19.9529,VALID,154,VALID,0,
2001-07-29, 01:34:00,VALID,917.536,VALID,0,VALID,95.8447,VALID,-0.0679233,VALID,19.9238,VALID,152,VALID,0.352902,
2001-07-29, 01:35:00,VALID,917.536,VALID,0,VALID,95.9019,VALID,-0.0679233,VALID,19.8918,VALID,157,VALID,0.727196,
2001-07-29, 01:36:00,VALID,917.54,VALID,0,VALID,96.2172,VALID,-0.0339617,VALID,19.8724,VALID,159,VALID,0.967411,
2001-07-29, 01:37:00,VALID,917.531,VALID,0,VALID,96.5644,VALID,-0.0849042,VALID,19.8886,VALID,151,VALID,0.913411,
2001-07-29, 01:38:00,VALID,917.523,VALID,0,VALID,96.6152,VALID,-0.0339617,VALID,19.8694,VALID,151,VALID,0.809095,
2001-07-29, 01:39:00,VALID,917.501,VALID,0,VALID,96.7043,VALID,-0.0509425,VALID,19.8665,VALID,148,VALID,0.566741,
2001-07-29, 01:40:00,VALID,917.474,VALID,0,VALID,96.7882,VALID,-0.0849042,VALID,19.8366,VALID,149,VALID,0.42652,
2001-07-29, 01:41:00,VALID,917.455,VALID,0,VALID,96.7856,VALID,-0.0679233,VALID,19.8245,VALID,136,VALID,0.021875,
2001-07-29, 01:42:00,VALID,917.441,VALID,0,VALID,96.8263,VALID,-0.0849042,VALID,19.8115,VALID,130,VALID,0,
2001-07-29, 01:43:00,VALID,917.43,VALID,0,VALID,96.9166,VALID,-0.0339617,VALID,19.8046,VALID,130,VALID,0,
2001-07-29, 01:44:00,VALID,917.422,VALID,0,VALID,96.956,VALID,0.0509425,VALID,19.7904,VALID,130,VALID,0,
2001-07-29, 01:45:00,VALID,917.409,VALID,0,VALID,96.9446,VALID,0.0679233,VALID,19.7842,VALID,130,VALID,0,
2001-07-29, 01:46:00,VALID,917.412,VALID,0,VALID,96.9357,VALID,0.0339617,VALID,19.7608,VALID,130,VALID,0,
2001-07-29, 01:47:00,VALID,917.417,VALID,0,VALID,96.9891,VALID,0.0509425,VALID,19.7651,VALID,130,VALID,0,
2001-07-29, 01:48:00,VALID,917.41,VALID,0,VALID,97.1201,VALID,0.0169808,VALID,19.7713,VALID,131,VALID,0,
2001-07-29, 01:49:00,VALID,917.406,VALID,0,VALID,97.1671,VALID,0.101885,VALID,19.7974,VALID,137,VALID,0,
2001-07-29, 01:50:00,VALID,917.396,VALID,0,VALID,97.1506,VALID,0.0679233,VALID,19.7939,VALID,137,VALID,0,
2001-07-29, 01:51:00,VALID,917.391,VALID,0,VALID,97.0361,VALID,0.0679233,VALID,19.7842,VALID,137,VALID,0,
2001-07-29, 01:52:00,VALID,917.38,VALID,0,VALID,97.0209,VALID,0.0339617,VALID,19.7748,VALID,137,VALID,0,
2001-07-29, 01:53:00,VALID,917.359,VALID,0,VALID,97.2129,VALID,0.0169808,VALID,19.7678,VALID,137,VALID,0,
2001-07-29, 01:54:00,VALID,917.336,VALID,0,VALID,97.354,VALID,0.0169808,VALID,19.7939,VALID,137,VALID,0,
2001-07-29, 01:55:00,VALID,917.316,VALID,0,VALID,97.0005,VALID,0.0509425,VALID,19.7643,VALID,62,VALID,0.324747,
2001-07-29, 01:56:00,VALID,917.307,VALID,0,VALID,96.1931,VALID,0.0679233,VALID,19.655,VALID,18,VALID,0.795982,
2001-07-29, 01:57:00,VALID,917.294,VALID,0,VALID,96.132,VALID,0.0339617,VALID,19.5872,VALID,31,VALID,0.863064,
2001-07-29, 01:58:00,VALID,917.275,VALID,0,VALID,96.2452,VALID,0.0169808,VALID,19.5198,VALID,30,VALID,0.789714,
2001-07-29, 01:59:00,VALID,917.281,VALID,0,VALID,96.3953,VALID,-0.101885,VALID,19.489,VALID,29,VALID,0.547526,
2001-07-29, 02:00:00,VALID,917.265,VALID,0,VALID,96.4881,VALID,-0.0849042,VALID,19.4565,VALID,29,VALID,0.0935444,
2001-07-29, 02:01:00,VALID,917.261,VALID,0,VALID,96.7513,VALID,-0.0509425,VALID,19.4302,VALID,29,VALID,0.394097,
2001-07-29, 02:02:00,VALID,917.24,VALID,0,VALID,96.9179,VALID,-0.0849042,VALID,19.4341,VALID,29,VALID,0.252604,
2001-07-29, 02:03:00,VALID,917.23,VALID,0,VALID,97.1519,VALID,-0.101885,VALID,19.4438,VALID,29,VALID,0.185897,
2001-07-29, 02:04:00,VALID,917.227,VALID,0,VALID,97.5524,VALID,-0.0849042,VALID,19.4821,VALID,29,VALID,0,
2001-07-29, 02:05:00,VALID,917.222,VALID,0,VALID,97.5003,VALID,-0.0679233,VALID,19.5178,VALID,60,VALID,0.032728,
2001-07-29, 02:06:00,VALID,917.209,VALID,0,VALID,97.4024,VALID,-0.0679233,VALID,19.4987,VALID,137,VALID,0.469643,
2001-07-29, 02:07:00,VALID,917.206,VALID,0,VALID,97.5308,VALID,-0.0679233,VALID,19.4915,VALID,142,VALID,0.461372,
2001-07-29, 02:08:00,VALID,917.187,VALID,0,VALID,97.5092,VALID,-0.0339617,VALID,19.4952,VALID,151,VALID,0.621995,
2001-07-29, 02:09:00,VALID,917.179,VALID,0,VALID,97.3591,VALID,-0.0849042,VALID,19.4729,VALID,156,VALID,0.592411,
2001-07-29, 02:10:00,VALID,917.155,VALID,0,VALID,97.3413,VALID,-0.0509425,VALID,19.4537,VALID,154,VALID,0.561022,
2001-07-29, 02:11:00,VALID,917.137,VALID,0,VALID,97.4634,VALID,-0.0679233,VALID,19.4371,VALID,147,VALID,0.459821,
2001-07-29, 02:12:00,VALID,917.138,VALID,0,VALID,97.5384,VALID,-0.0679233,VALID,19.4535,VALID,147,VALID,0.0720486,
2001-07-29, 02:13:00,VALID,917.128,VALID,0,VALID,97.4532,VALID,-0.0169808,VALID,19.456,VALID,49,VALID,0.16862,
2001-07-29, 02:14:00,VALID,917.119,VALID,0,VALID,97.3502,VALID,0.0169808,VALID,19.4267,VALID,308,VALID,0.487413,
2001-07-29, 02:15:00,VALID,917.127,VALID,0,VALID,97.8055,VALID,0,VALID,19.491,VALID,290,VALID,0.315173,
2001-07-29, 02:16:00,VALID,917.114,VALID,0,VALID,97.9136,VALID,0,VALID,19.5166,VALID,285,VALID,0.014974,
2001-07-29, 02:17:00,VALID,917.11,VALID,0,VALID,97.925,VALID,0,VALID,19.5427,VALID,284,VALID,0,
2001-07-29, 02:18:00,VALID,917.118,VALID,0,VALID,97.8779,VALID,0,VALID,19.536,VALID,283,VALID,0,
2001-07-29, 02:19:00,VALID,917.112,VALID,0,VALID,97.8385,VALID,0,VALID,19.5298,VALID,282,VALID,0,
2001-07-29, 02:20:00,VALID,917.11,VALID,0,VALID,97.8207,VALID,0,VALID,19.5293,VALID,282,VALID,0,
2001-07-29, 02:21:00,VALID,917.097,VALID,0,VALID,97.8131,VALID,0,VALID,19.5365,VALID,282,VALID,0,
2001-07-29, 02:22:00,VALID,917.093,VALID,0,VALID,97.7826,VALID,0.0169808,VALID,19.5263,VALID,282,VALID,0,
2001-07-29, 02:23:00,VALID,917.098,VALID,0,VALID,97.7393,VALID,-0.0169808,VALID,19.5104,VALID,282,VALID,0,
2001-07-29, 02:24:00,VALID,917.101,VALID,0,VALID,97.5982,VALID,-0.0339617,VALID,19.4947,VALID,282,VALID,0,
2001-07-29, 02:25:00,VALID,917.098,VALID,0,VALID,97.3808,VALID,0,VALID,19.4361,VALID,282,VALID,0,
2001-07-29, 02:26:00,VALID,917.115,VALID,0,VALID,97.1862,VALID,-0.0169808,VALID,19.3844,VALID,282,VALID,0,
2001-07-29, 02:27:00,VALID,917.113,VALID,0,VALID,97.0311,VALID,0,VALID,19.336,VALID,282,VALID,0,
2001-07-29, 02:28:00,VALID,917.126,VALID,0,VALID,96.9255,VALID,0,VALID,19.291,VALID,284,VALID,0,
2001-07-29, 02:29:00,VALID,917.128,VALID,0,VALID,97.0069,VALID,0,VALID,19.2749,VALID,34,VALID,0,
2001-07-29, 02:30:00,VALID,917.142,VALID,0,VALID,97.602,VALID,0,VALID,19.3233,VALID,47,VALID,0,
2001-07-29, 02:31:00,VALID,917.154,VALID,0,VALID,97.9123,VALID,0,VALID,19.3981,VALID,50,VALID,0.377821,
2001-07-29, 02:32:00,VALID,917.159,VALID,0,VALID,97.7279,VALID,0,VALID,19.375,VALID,44,VALID,0.895616,
2001-07-29, 02:33:00,VALID,917.173,VALID,0,VALID,97.5969,VALID,0.0169808,VALID,19.3427,VALID,31,VALID,0.625601,
2001-07-29, 02:34:00,VALID,917.166,VALID,0,VALID,97.7165,VALID,-0.0169808,VALID,19.3457,VALID,28,VALID,0.14442,
2001-07-29, 02:35:00,VALID,917.164,VALID,0,VALID,97.8284,VALID,0,VALID,19.3651,VALID,28,VALID,0,
2001-07-29, 02:36:00,VALID,917.165,VALID,0,VALID,97.7978,VALID,-0.0169808,VALID,19.3626,VALID,27,VALID,0,
2001-07-29, 02:37:00,VALID,917.167,VALID,0,VALID,97.8805,VALID,0.0169808,VALID,19.3623,VALID,358,VALID,0.177734,
2001-07-29, 02:38:00,VALID,917.17,VALID,0,VALID,98.1285,VALID,0,VALID,19.4269,VALID,338,VALID,0.117989,
2001-07-29, 02:39:00,VALID,917.176,VALID,0,VALID,98.2582,VALID,-0.0169808,VALID,19.4687,VALID,237,VALID,0.0276786,
2001-07-29, 02:40:00,VALID,917.179,VALID,0,VALID,98.3472,VALID,0,VALID,19.5139,VALID,237,VALID,0,
2001-07-29, 02:41:00,VALID,917.181,VALID,0,VALID,98.3472,VALID,0,VALID,19.527,VALID,237,VALID,0,
2001-07-29, 02:42:00,VALID,917.191,VALID,0,VALID,98.3294,VALID,0,VALID,19.5164,VALID,237,VALID,0,
2001-07-29, 02:43:00,VALID,917.173,VALID,0,VALID,98.3383,VALID,0,VALID,19.5333,VALID,237,VALID,0,
2001-07-29, 02:44:00,VALID,917.166,VALID,0,VALID,98.3828,VALID,0.0169808,VALID,19.5623,VALID,276,VALID,0,
2001-07-29, 02:45:00,VALID,917.17,VALID,0,VALID,98.4146,VALID,0.0169808,VALID,19.5914,VALID,321,VALID,0,
2001-07-29, 02:46:00,VALID,917.174,VALID,0,VALID,98.3586,VALID,0.0339617,VALID,19.5782,VALID,346,VALID,0,
2001-07-29, 02:47:00,VALID,917.174,VALID,0,VALID,98.3141,VALID,0,VALID,19.5487,VALID,352,VALID,0,
2001-07-29, 02:48:00,VALID,917.173,VALID,0,VALID,98.2874,VALID,0,VALID,19.5586,VALID,5,VALID,0,
2001-07-29, 02:49:00,VALID,917.181,VALID,0,VALID,98.2543,VALID,0,VALID,19.569,VALID,37,VALID,0,
2001-07-29, 02:50:00,VALID,917.184,VALID,0,VALID,98.2429,VALID,0,VALID,19.572,VALID,47,VALID,0,
2001-07-29, 02:51:00,VALID,917.175,VALID,0,VALID,98.1412,VALID,0,VALID,19.5656,VALID,64,VALID,0.533482,
2001-07-29, 02:52:00,VALID,917.168,VALID,0,VALID,98.1297,VALID,0,VALID,19.5429,VALID,65,VALID,0.874783,
2001-07-29, 02:53:00,VALID,917.177,VALID,0,VALID,98.1768,VALID,0,VALID,19.5365,VALID,70,VALID,0.783454,
2001-07-29, 02:54:00,VALID,917.166,VALID,0,VALID,98.2225,VALID,0,VALID,19.5362,VALID,92,VALID,0.213393,
2001-07-29, 02:55:00,VALID,917.169,VALID,0,VALID,98.2124,VALID,0.0169808,VALID,19.5305,VALID,68,VALID,0.186867,
2001-07-29, 02:56:00,VALID,917.168,VALID,0,VALID,98.1106,VALID,0,VALID,19.4816,VALID,39,VALID,0.0854911,
2001-07-29, 02:57:00,VALID,917.175,VALID,0,VALID,98.0496,VALID,0,VALID,19.4528,VALID,37,VALID,0,
2001-07-29, 02:58:00,VALID,917.18,VALID,0,VALID,98.0394,VALID,0,VALID,19.4264,VALID,30,VALID,0.182075,
2001-07-29, 02:59:00,VALID,917.175,VALID,0,VALID,98.0916,VALID,0,VALID,19.4103,VALID,33,VALID,0.0338542,
2001-07-29, 03:00:00,VALID,917.169,VALID,0,VALID,98.0954,VALID,0,VALID,19.4133,VALID,42,VALID,0.178043,
2001-07-29, 03:01:00,VALID,917.148,VALID,0,VALID,98.075,VALID,0.0339617,VALID,19.4103,VALID,38,VALID,0.264757,
2001-07-29, 03:02:00,VALID,917.141,VALID,0,VALID,97.9746,VALID,0.0169808,VALID,19.3941,VALID,42,VALID,0,
2001-07-29, 03:03:00,VALID,917.131,VALID,0,VALID,97.9797,VALID,0,VALID,19.3681,VALID,56,VALID,0,
2001-07-29, 03:04:00,VALID,917.119,VALID,0,VALID,98.0153,VALID,0,VALID,19.3882,VALID,63,VALID,0,
2001-07-29, 03:05:00,VALID,917.101,VALID,0,VALID,97.9848,VALID,0,VALID,19.378,VALID,69,VALID,0,
2001-07-29, 03:06:00,VALID,917.092,VALID,0,VALID,98.0318,VALID,0.0169808,VALID,19.3815,VALID,72,VALID,0,
2001-07-29, 03:07:00,VALID,917.073,VALID,0,VALID,98.0839,VALID,0.0509425,VALID,19.3872,VALID,86,VALID,0,
2001-07-29, 03:08:00,VALID,917.061,VALID,0,VALID,98.0522,VALID,0,VALID,19.3941,VALID,100,VALID,0,
2001-07-29, 03:09:00,VALID,917.051,VALID,0,VALID,98.0153,VALID,0.0169808,VALID,19.3782,VALID,123,VALID,0,
2001-07-29, 03:10:00,VALID,917.049,VALID,0,VALID,97.9898,VALID,0.0679233,VALID,19.3688,VALID,140,VALID,0.140836,
2001-07-29, 03:11:00,VALID,917.04,VALID,0,VALID,97.9759,VALID,0,VALID,19.3392,VALID,142,VALID,0.391518,
2001-07-29, 03:12:00,VALID,917.048,VALID,0,VALID,97.9708,VALID,0,VALID,19.3268,VALID,154,VALID,0.455729,
2001-07-29, 03:13:00,VALID,917.042,VALID,0,VALID,97.9174,VALID,0,VALID,19.3136,VALID,145,VALID,0.436632,
2001-07-29, 03:14:00,VALID,917.042,VALID,0,VALID,97.8678,VALID,0,VALID,19.2813,VALID,150,VALID,0.543403,
2001-07-29, 03:15:00,VALID,917.034,VALID,0,VALID,97.8258,VALID,0,VALID,19.2555,VALID,175,VALID,0.584293,
2001-07-29, 03:16:00,VALID,917.017,VALID,0,VALID,97.8042,VALID,0.0169808,VALID,19.2267,VALID,168,VALID,0.505859,
2001-07-29, 03:17:00,VALID,917.006,VALID,0,VALID,97.8093,VALID,0.0169808,VALID,19.2075,VALID,167,VALID,0.540148,
2001-07-29, 03:18:00,VALID,916.991,VALID,0,VALID,97.9148,VALID,0.0339617,VALID,19.1812,VALID,166,VALID,0.529247,
2001-07-29, 03:19:00,VALID,916.973,VALID,0,VALID,97.8398,VALID,0.0169808,VALID,19.1519,VALID,162,VALID,0.380357,
2001-07-29, 03:20:00,VALID,916.961,VALID,0,VALID,97.8652,VALID,0,VALID,19.1266,VALID,162,VALID,0.335304,
2001-07-29, 03:21:00,VALID,916.943,VALID,0,VALID,97.9174,VALID,0,VALID,19.1007,VALID,162,VALID,0.0276786,
2001-07-29, 03:22:00,VALID,916.921,VALID,0,VALID,98.0038,VALID,0,VALID,19.0913,VALID,162,VALID,0,
2001-07-29, 03:23:00,VALID,916.907,VALID,0,VALID,98.0903,VALID,-0.0169808,VALID,19.0915,VALID,162,VALID,0,
2001-07-29, 03:24:00,VALID,916.886,VALID,0,VALID,98.2162,VALID,0,VALID,19.1079,VALID,162,VALID,0,
2001-07-29, 03:25:00,VALID,916.866,VALID,0,VALID,98.2098,VALID,-0.0169808,VALID,19.1042,VALID,162,VALID,0,
2001-07-29, 03:26:00,VALID,916.83,VALID,0,VALID,98.1577,VALID,0,VALID,19.0913,VALID,162,VALID,0,
2001-07-29, 03:27:00,VALID,916.803,VALID,0,VALID,97.9097,VALID,0,VALID,19.017,VALID,162,VALID,0,
2001-07-29, 03:28:00,VALID,916.765,VALID,0,VALID,97.78,VALID,0,VALID,18.9363,VALID,162,VALID,0,
2001-07-29, 03:29:00,VALID,916.745,VALID,0,VALID,97.8512,VALID,0.0169808,VALID,18.9204,VALID,162,VALID,0,
2001-07-29, 03:30:00,VALID,916.724,VALID,0,VALID,97.8195,VALID,0,VALID,18.8913,VALID,162,VALID,0,
2001-07-29, 03:31:00,VALID,916.719,VALID,0,VALID,98.0178,VALID,0,VALID,18.8911,VALID,162,VALID,0,
2001-07-29, 03:32:00,VALID,916.719,VALID,0,VALID,98.3535,VALID,0,VALID,18.946,VALID,162,VALID,0,
2001-07-29, 03:33:00,VALID,916.727,VALID,0,VALID,98.529,VALID,0,VALID,19.0264,VALID,162,VALID,0,
2001-07-29, 03:34:00,VALID,916.739,VALID,0,VALID,98.6002,VALID,0,VALID,19.098,VALID,162,VALID,0,
2001-07-29, 03:35:00,VALID,916.742,VALID,0,VALID,98.59,VALID,0.0169808,VALID,19.1526,VALID,162,VALID,0,
2001-07-29, 03:36:00,VALID,916.735,VALID,0,VALID,98.4273,VALID,0,VALID,19.1434,VALID,162,VALID,0,
2001-07-29, 03:37:00,VALID,916.736,VALID,0,VALID,98.3217,VALID,0.0169808,VALID,19.1243,VALID,162,VALID,0,
2001-07-29, 03:38:00,VALID,916.724,VALID,0,VALID,98.1272,VALID,0.0169808,VALID,19.0885,VALID,162,VALID,0,
2001-07-29, 03:39:00,VALID,916.73,VALID,0,VALID,98.1017,VALID,0,VALID,19.0431,VALID,162,VALID,0.516518,